Time,TemperatureF,DewpointF,PressureIn,WindDirection,WindDirectionDegrees,WindSpeedMPH,WindSpeedGustMPH,Humidity,HourlyPrecipIn,Conditions,Clouds,dailyrainin,SoftwareType,DateUTC
2013-01-08 00:02:00,30.0,-99.9,-100.00,South,184,4.0,-999.0,-999,-99.99,,,-99.99,,2013-01-08 07:02:00,
2013-01-08 00:12:00,30.0,-99.9,-100.00,South,184,4.0,-999.0,-999,-99.99,,,-99.99,,2013-01-08 07:12:00,
2013-01-08 00:22:00,30.0,-99.9,-100.00,South,184,6.0,-999.0,-999,-99.99,,,-99.99,,2013-01-08 07:22:00,
2013-01-08 00:32:00,29.0,-99.9,-100.00,WSW,242,4.0,-999.0,-999,-99.99,,,-99.99,,2013-01-08 07:32:00,
2013-01-08 00:42:00,29.0,-99.9,-100.00,WSW,242,4.0,-999.0,-999,-99.99,,,-99.99,,2013-01-08 07:42:00,
2013-01-08 00:53:00,29.0,-99.9,-100.00,SSW,204,3.0,-999.0,-999,-99.99,,,-99.99,,2013-01-08 07:53:00,
2013-01-08 01:02:00,29.0,-99.9,-100.00,SSW,192,4.0,-999.0,-999,-99.99,,,-99.99,,2013-01-08 08:02:00,
2013-01-08 01:12:00,29.0,-99.9,-100.00,SSW,192,4.0,-999.0,-999,-99.99,,,-99.99,,2013-01-08 08:12:00,
2013-01-08 01:22:00,29.0,-99.9,-100.00,SSW,209,4.0,-999.0,-999,-99.99,,,-99.99,,2013-01-08 08:22:00,
2013-01-08 01:33:00,29.0,-99.9,-100.00,SSW,200,4.0,-999.0,-999,-99.99,,,-99.99,,2013-01-08 08:33:00,
2013-01-08 01:42:00,29.0,-99.9,-100.00,SSW,200,4.0,-999.0,-999,-99.99,,,-99.99,,2013-01-08 08:42:00,
2013-01-08 01:53:00,29.0,-99.9,-100.00,SW,236,5.0,-999.0,-999,-99.99,,,-99.99,,2013-01-08 08:53:00,
2013-01-08 02:02:00,29.0,-99.9,-100.00,NW,316,4.0,-999.0,-999,-99.99,,,-99.99,,2013-01-08 09:02:00,
2013-01-08 02:12:00,29.0,-99.9,-100.00,NW,316,4.0,-999.0,-999,-99.99,,,-99.99,,2013-01-08 09:12:00,
2013-01-08 02:22:00,30.0,-99.9,-100.00,WSW,251,4.0,-999.0,-999,-99.99,,,-99.99,,2013-01-08 09:22:00,
2013-01-08 02:33:00,29.0,-99.9,-100.00,SW,217,3.0,-999.0,-999,-99.99,,,-99.99,,2013-01-08 09:33:00,
2013-01-08 02:43:00,29.0,-99.9,-100.00,SW,217,3.0,-999.0,-999,-99.99,,,-99.99,,2013-01-08 09:43:00,
2013-01-08 02:53:00,30.0,-99.9,-100.00,South,176,5.0,-999.0,-999,-99.99,,,-99.99,,2013-01-08 09:53:00,
2013-01-08 03:03:00,29.0,-99.9,-100.00,ENE,71,3.0,-999.0,-999,-99.99,,,-99.99,,2013-01-08 10:03:00,
2013-01-08 03:12:00,29.0,-99.9,-100.00,ENE,71,3.0,-999.0,-999,-99.99,,,-99.99,,2013-01-08 10:12:00,
2013-01-08 03:22:00,32.0,-99.9,-100.00,South,185,6.0,-999.0,-999,-99.99,,,-99.99,,2013-01-08 10:22:00,
2013-01-08 03:33:00,34.0,-99.9,-100.00,South,186,6.0,-999.0,-999,-99.99,,,-99.99,,2013-01-08 10:33:00,
2013-01-08 03:43:00,34.0,-99.9,-100.00,South,186,6.0,-999.0,-999,-99.99,,,-99.99,,2013-01-08 10:43:00,
2013-01-08 03:53:00,35.0,-99.9,-100.00,SSW,209,8.0,-999.0,-999,-99.99,,,-99.99,,2013-01-08 10:53:00,
2013-01-08 04:02:00,35.0,-99.9,-100.00,SSW,197,6.0,-999.0,-999,-99.99,,,-99.99,,2013-01-08 11:02:00,
2013-01-08 04:12:00,35.0,-99.9,-100.00,SSW,197,6.0,-999.0,-999,-99.99,,,-99.99,,2013-01-08 11:12:00,
2013-01-08 04:23:00,36.0,-99.9,-100.00,SSW,194,5.0,-999.0,-999,-99.99,,,-99.99,,2013-01-08 11:23:00,
2013-01-08 04:33:00,36.0,-99.9,-100.00,SW,214,6.0,-999.0,-999,-99.99,,,-99.99,,2013-01-08 11:33:00,
2013-01-08 04:43:00,36.0,-99.9,-100.00,SW,214,6.0,-999.0,-999,-99.99,,,-99.99,,2013-01-08 11:43:00,
2013-01-08 04:53:00,35.0,-99.9,-100.00,SSW,206,6.0,-999.0,-999,-99.99,,,-99.99,,2013-01-08 11:53:00,
2013-01-08 05:03:00,35.0,-99.9,-100.00,South,169,5.0,-999.0,-999,-99.99,,,-99.99,,2013-01-08 12:03:00,
2013-01-08 05:12:00,35.0,-99.9,-100.00,South,169,5.0,-999.0,-999,-99.99,,,-99.99,,2013-01-08 12:12:00,
2013-01-08 05:22:00,36.0,-99.9,-100.00,SSW,203,8.0,-999.0,-999,-99.99,,,-99.99,,2013-01-08 12:22:00,
2013-01-08 05:33:00,37.0,-99.9,-100.00,WSW,242,10.0,-999.0,-999,-99.99,,,-99.99,,2013-01-08 12:33:00,
2013-01-08 05:43:00,37.0,-99.9,-100.00,WSW,242,10.0,-999.0,-999,-99.99,,,-99.99,,2013-01-08 12:43:00,
2013-01-08 05:53:00,43.0,-99.9,-100.00,West,270,13.0,-999.0,-999,-99.99,,,-99.99,,2013-01-08 12:53:00,
2013-01-08 06:03:00,44.0,-99.9,-100.00,West,261,12.0,-999.0,-999,-99.99,,,-99.99,,2013-01-08 13:03:00,
2013-01-08 06:13:00,44.0,-99.9,-100.00,West,261,12.0,-999.0,-999,-99.99,,,-99.99,,2013-01-08 13:13:00,
2013-01-08 06:22:00,45.0,-99.9,-100.00,West,269,13.0,-999.0,-999,-99.99,,,-99.99,,2013-01-08 13:22:00,
2013-01-08 06:33:00,46.0,-99.9,-100.00,West,271,13.0,-999.0,-999,-99.99,,,-99.99,,2013-01-08 13:33:00,
2013-01-08 06:43:00,46.0,-99.9,-100.00,West,271,13.0,-999.0,-999,-99.99,,,-99.99,,2013-01-08 13:43:00,
2013-01-08 06:53:00,46.0,-99.9,-100.00,West,271,13.0,-999.0,-999,-99.99,,,-99.99,,2013-01-08 13:53:00,
2013-01-08 07:03:00,46.0,-99.9,-100.00,West,277,9.0,-999.0,-999,-99.99,,,-99.99,,2013-01-08 14:03:00,
2013-01-08 07:13:00,46.0,-99.9,-100.00,West,277,9.0,-999.0,-999,-99.99,,,-99.99,,2013-01-08 14:13:00,
2013-01-08 07:23:00,45.0,-99.9,-100.00,WNW,299,7.0,-999.0,-999,-99.99,,,-99.99,,2013-01-08 14:23:00,
2013-01-08 07:33:00,45.0,-99.9,-100.00,WNW,298,5.0,-999.0,-999,-99.99,,,-99.99,,2013-01-08 14:33:00,
2013-01-08 07:44:00,45.0,-99.9,-100.00,WNW,298,5.0,-999.0,-999,-99.99,,,-99.99,,2013-01-08 14:44:00,
2013-01-08 07:53:00,45.0,-99.9,-100.00,West,262,5.0,-999.0,-999,-99.99,,,-99.99,,2013-01-08 14:53:00,
2013-01-08 08:03:00,44.0,-99.9,-100.00,SSW,213,4.0,-999.0,-999,-99.99,,,-99.99,,2013-01-08 15:03:00,
2013-01-08 08:12:00,44.0,-99.9,-100.00,SSW,213,4.0,-999.0,-999,-99.99,,,-99.99,,2013-01-08 15:12:00,
2013-01-08 08:23:00,41.0,-99.9,-100.00,SE,142,3.0,-999.0,-999,-99.99,,,-99.99,,2013-01-08 15:23:00,
2013-01-08 08:33:00,40.0,-99.9,-100.00,NE,36,5.0,-999.0,-999,-99.99,,,-99.99,,2013-01-08 15:33:00,
2013-01-08 08:43:00,40.0,-99.9,-100.00,NE,36,5.0,-999.0,-999,-99.99,,,-99.99,,2013-01-08 15:43:00,
2013-01-08 08:53:00,40.0,-99.9,-100.00,NE,36,5.0,-999.0,-999,-99.99,,,-99.99,,2013-01-08 15:53:00,
2013-01-08 09:03:00,41.0,-99.9,-100.00,NNW,348,3.0,-999.0,-999,-99.99,,,-99.99,,2013-01-08 16:03:00,
2013-01-08 09:13:00,41.0,-99.9,-100.00,NNW,348,3.0,-999.0,-999,-99.99,,,-99.99,,2013-01-08 16:13:00,
2013-01-08 09:23:00,41.0,-99.9,-100.00,NNW,348,3.0,-999.0,-999,-99.99,,,-99.99,,2013-01-08 16:23:00,
2013-01-08 09:34:00,43.0,-99.9,-100.00,SE,137,4.0,-999.0,-999,-99.99,,,-99.99,,2013-01-08 16:34:00,
2013-01-08 09:43:00,43.0,-99.9,-100.00,SE,137,4.0,-999.0,-999,-99.99,,,-99.99,,2013-01-08 16:43:00,
2013-01-08 09:53:00,43.0,-99.9,-100.00,SSE,165,5.0,-999.0,-999,-99.99,,,-99.99,,2013-01-08 16:53:00,
2013-01-08 10:04:00,45.0,-99.9,-100.00,SSE,153,4.0,-999.0,-999,-99.99,,,-99.99,,2013-01-08 17:04:00,
2013-01-08 10:13:00,45.0,-99.9,-100.00,SSE,153,4.0,-999.0,-999,-99.99,,,-99.99,,2013-01-08 17:13:00,
2013-01-08 10:23:00,48.0,-99.9,-100.00,SSE,155,5.0,-999.0,-999,-99.99,,,-99.99,,2013-01-08 17:23:00,
2013-01-08 10:34:00,51.0,-99.9,-100.00,East,84,3.0,-999.0,-999,-99.99,,,-99.99,,2013-01-08 17:34:00,
2013-01-08 10:43:00,51.0,-99.9,-100.00,East,84,3.0,-999.0,-999,-99.99,,,-99.99,,2013-01-08 17:43:00,
2013-01-08 10:54:00,51.0,-99.9,-100.00,NNE,26,5.0,-999.0,-999,-99.99,,,-99.99,,2013-01-08 17:54:00,
2013-01-08 11:04:00,52.0,-99.9,-100.00,NE,34,4.0,-999.0,-999,-99.99,,,-99.99,,2013-01-08 18:04:00,
2013-01-08 11:13:00,52.0,-99.9,-100.00,NE,34,4.0,-999.0,-999,-99.99,,,-99.99,,2013-01-08 18:13:00,
2013-01-08 11:24:00,52.0,-99.9,-100.00,NNE,28,4.0,-999.0,-999,-99.99,,,-99.99,,2013-01-08 18:24:00,
2013-01-08 11:34:00,52.0,-99.9,-100.00,NE,35,5.0,-999.0,-999,-99.99,,,-99.99,,2013-01-08 18:34:00,
2013-01-08 11:43:00,52.0,-99.9,-100.00,NE,35,5.0,-999.0,-999,-99.99,,,-99.99,,2013-01-08 18:43:00,
2013-01-08 11:53:00,53.0,-99.9,-100.00,North,358,3.0,-999.0,-999,-99.99,,,-99.99,,2013-01-08 18:53:00,
2013-01-08 12:04:00,53.0,-99.9,-100.00,North,358,3.0,-999.0,-999,-99.99,,,-99.99,,2013-01-08 19:04:00,
2013-01-08 12:12:00,53.0,-99.9,-100.00,North,358,3.0,-999.0,-999,-99.99,,,-99.99,,2013-01-08 19:12:00,
2013-01-08 12:23:00,52.0,-99.9,-100.00,West,280,11.0,-999.0,-999,-99.99,,,-99.99,,2013-01-08 19:23:00,
2013-01-08 12:33:00,52.0,-99.9,-100.00,West,274,18.0,-999.0,-999,-99.99,,,-99.99,,2013-01-08 19:33:00,
2013-01-08 12:43:00,52.0,-99.9,-100.00,West,274,18.0,-999.0,-999,-99.99,,,-99.99,,2013-01-08 19:43:00,
2013-01-08 12:53:00,51.0,-99.9,-100.00,West,279,19.0,-999.0,-999,-99.99,,,-99.99,,2013-01-08 19:53:00,
2013-01-08 13:03:00,52.0,-99.9,-100.00,WNW,293,16.0,-999.0,-999,-99.99,,,-99.99,,2013-01-08 20:03:00,
2013-01-08 13:12:00,52.0,-99.9,-100.00,WNW,293,16.0,-999.0,-999,-99.99,,,-99.99,,2013-01-08 20:12:00,
2013-01-08 13:23:00,52.0,-99.9,-100.00,NW,305,15.0,-999.0,-999,-99.99,,,-99.99,,2013-01-08 20:23:00,
2013-01-08 13:33:00,52.0,-99.9,-100.00,WNW,301,13.0,-999.0,-999,-99.99,,,-99.99,,2013-01-08 20:33:00,
2013-01-08 13:43:00,52.0,-99.9,-100.00,WNW,301,13.0,-999.0,-999,-99.99,,,-99.99,,2013-01-08 20:43:00,
2013-01-08 13:54:00,53.0,-99.9,-100.00,WNW,294,12.0,-999.0,-999,-99.99,,,-99.99,,2013-01-08 20:54:00,
2013-01-08 14:03:00,53.0,-99.9,-100.00,WNW,297,11.0,-999.0,-999,-99.99,,,-99.99,,2013-01-08 21:03:00,
2013-01-08 14:13:00,53.0,-99.9,-100.00,WNW,297,11.0,-999.0,-999,-99.99,,,-99.99,,2013-01-08 21:13:00,
2013-01-08 14:23:00,52.0,-99.9,-100.00,NW,318,9.0,-999.0,-999,-99.99,,,-99.99,,2013-01-08 21:23:00,
2013-01-08 14:34:00,52.0,-99.9,-100.00,NW,326,9.0,-999.0,-999,-99.99,,,-99.99,,2013-01-08 21:34:00,
2013-01-08 14:43:00,52.0,-99.9,-100.00,NW,326,9.0,-999.0,-999,-99.99,,,-99.99,,2013-01-08 21:43:00,
2013-01-08 14:53:00,52.0,-99.9,-100.00,NW,321,8.0,-999.0,-999,-99.99,,,-99.99,,2013-01-08 21:53:00,
2013-01-08 15:04:00,53.0,-99.9,-100.00,West,279,7.0,-999.0,-999,-99.99,,,-99.99,,2013-01-08 22:04:00,
2013-01-08 15:13:00,53.0,-99.9,-100.00,West,279,7.0,-999.0,-999,-99.99,,,-99.99,,2013-01-08 22:13:00,
2013-01-08 15:23:00,53.0,-99.9,-100.00,NW,311,7.0,-999.0,-999,-99.99,,,-99.99,,2013-01-08 22:23:00,
2013-01-08 15:33:00,53.0,-99.9,-100.00,NW,306,8.0,-999.0,-999,-99.99,,,-99.99,,2013-01-08 22:33:00,
2013-01-08 15:43:00,53.0,-99.9,-100.00,NW,306,8.0,-999.0,-999,-99.99,,,-99.99,,2013-01-08 22:43:00,
2013-01-08 15:53:00,53.0,-99.9,-100.00,WNW,289,9.0,-999.0,-999,-99.99,,,-99.99,,2013-01-08 22:53:00,
2013-01-08 16:03:00,53.0,-99.9,-100.00,NW,311,11.0,-999.0,-999,-99.99,,,-99.99,,2013-01-08 23:03:00,
2013-01-08 16:13:00,53.0,-99.9,-100.00,NW,311,11.0,-999.0,-999,-99.99,,,-99.99,,2013-01-08 23:13:00,
2013-01-08 16:23:00,53.0,-99.9,-100.00,NW,311,11.0,-999.0,-999,-99.99,,,-99.99,,2013-01-08 23:23:00,
2013-01-08 16:33:00,52.0,-99.9,-100.00,NNW,333,8.0,-999.0,-999,-99.99,,,-99.99,,2013-01-08 23:33:00,
2013-01-08 16:43:00,52.0,-99.9,-100.00,NNW,333,8.0,-999.0,-999,-99.99,,,-99.99,,2013-01-08 23:43:00,
2013-01-08 16:53:00,51.0,-99.9,-100.00,North,355,11.0,-999.0,-999,-99.99,,,-99.99,,2013-01-08 23:53:00,
2013-01-08 17:03:00,50.0,-99.9,-100.00,NNW,333,10.0,-999.0,-999,-99.99,,,-99.99,,2013-01-09 00:03:00,
2013-01-08 17:13:00,50.0,-99.9,-100.00,NNW,333,10.0,-999.0,-999,-99.99,,,-99.99,,2013-01-09 00:13:00,
2013-01-08 17:23:00,50.0,-99.9,-100.00,NW,326,15.0,-999.0,-999,-99.99,,,-99.99,,2013-01-09 00:23:00,
2013-01-08 17:33:00,49.0,-99.9,-100.00,NNW,344,14.0,-999.0,-999,-99.99,,,-99.99,,2013-01-09 00:33:00,
2013-01-08 17:43:00,49.0,-99.9,-100.00,NNW,344,14.0,-999.0,-999,-99.99,,,-99.99,,2013-01-09 00:43:00,
2013-01-08 17:53:00,48.0,-99.9,-100.00,North,352,12.0,-999.0,-999,-99.99,,,-99.99,,2013-01-09 00:53:00,
2013-01-08 18:03:00,47.0,-99.9,-100.00,NNW,330,9.0,-999.0,-999,-99.99,,,-99.99,,2013-01-09 01:03:00,
2013-01-08 18:12:00,47.0,-99.9,-100.00,NNW,330,9.0,-999.0,-999,-99.99,,,-99.99,,2013-01-09 01:12:00,
2013-01-08 18:22:00,47.0,-99.9,-100.00,West,260,5.0,-999.0,-999,-99.99,,,-99.99,,2013-01-09 01:22:00,
2013-01-08 18:33:00,46.0,-99.9,-100.00,ESE,117,6.0,-999.0,-999,-99.99,,,-99.99,,2013-01-09 01:33:00,
2013-01-08 18:43:00,46.0,-99.9,-100.00,ESE,117,6.0,-999.0,-999,-99.99,,,-99.99,,2013-01-09 01:43:00,
2013-01-08 18:53:00,46.0,-99.9,-100.00,ESE,117,6.0,-999.0,-999,-99.99,,,-99.99,,2013-01-09 01:53:00,
2013-01-08 19:03:00,45.0,-99.9,-100.00,East,87,5.0,-999.0,-999,-99.99,,,-99.99,,2013-01-09 02:03:00,
2013-01-08 19:12:00,45.0,-99.9,-100.00,East,87,5.0,-999.0,-999,-99.99,,,-99.99,,2013-01-09 02:12:00,
2013-01-08 19:23:00,43.0,-99.9,-100.00,ENE,68,5.0,-999.0,-999,-99.99,,,-99.99,,2013-01-09 02:23:00,
2013-01-08 19:33:00,43.0,-99.9,-100.00,East,98,4.0,-999.0,-999,-99.99,,,-99.99,,2013-01-09 02:33:00,
2013-01-08 19:43:00,43.0,-99.9,-100.00,East,98,4.0,-999.0,-999,-99.99,,,-99.99,,2013-01-09 02:43:00,
2013-01-08 19:53:00,43.0,-99.9,-100.00,East,98,4.0,-999.0,-999,-99.99,,,-99.99,,2013-01-09 02:53:00,
2013-01-08 20:03:00,41.0,-99.9,-100.00,South,190,6.0,-999.0,-999,-99.99,,,-99.99,,2013-01-09 03:03:00,
2013-01-08 20:12:00,41.0,-99.9,-100.00,South,190,6.0,-999.0,-999,-99.99,,,-99.99,,2013-01-09 03:12:00,
2013-01-08 20:22:00,40.0,-99.9,-100.00,SSE,167,5.0,-999.0,-999,-99.99,,,-99.99,,2013-01-09 03:22:00,
2013-01-08 20:33:00,39.0,-99.9,-100.00,SSE,160,5.0,-999.0,-999,-99.99,,,-99.99,,2013-01-09 03:33:00,
2013-01-08 20:43:00,39.0,-99.9,-100.00,SSE,160,5.0,-999.0,-999,-99.99,,,-99.99,,2013-01-09 03:43:00,
2013-01-08 20:53:00,38.0,-99.9,-100.00,SSE,156,4.0,-999.0,-999,-99.99,,,-99.99,,2013-01-09 03:53:00,
2013-01-08 21:02:00,38.0,-99.9,-100.00,South,184,5.0,-999.0,-999,-99.99,,,-99.99,,2013-01-09 04:02:00,
2013-01-08 21:12:00,38.0,-99.9,-100.00,South,184,5.0,-999.0,-999,-99.99,,,-99.99,,2013-01-09 04:12:00,
2013-01-08 21:23:00,38.0,-99.9,-100.00,SSE,167,6.0,-999.0,-999,-99.99,,,-99.99,,2013-01-09 04:23:00,
2013-01-08 21:33:00,37.0,-99.9,-100.00,SSE,168,4.0,-999.0,-999,-99.99,,,-99.99,,2013-01-09 04:33:00,
2013-01-08 21:43:00,37.0,-99.9,-100.00,SSE,168,4.0,-999.0,-999,-99.99,,,-99.99,,2013-01-09 04:43:00,
2013-01-08 21:53:00,37.0,-99.9,-100.00,SSE,162,6.0,-999.0,-999,-99.99,,,-99.99,,2013-01-09 04:53:00,
2013-01-08 22:04:00,38.0,-99.9,-100.00,South,180,6.0,-999.0,-999,-99.99,,,-99.99,,2013-01-09 05:04:00,
2013-01-08 22:12:00,38.0,-99.9,-100.00,South,180,6.0,-999.0,-999,-99.99,,,-99.99,,2013-01-09 05:12:00,
2013-01-08 22:22:00,37.0,-99.9,-100.00,SSE,168,6.0,-999.0,-999,-99.99,,,-99.99,,2013-01-09 05:22:00,
2013-01-08 22:33:00,36.0,-99.9,-100.00,SE,143,4.0,-999.0,-999,-99.99,,,-99.99,,2013-01-09 05:33:00,
2013-01-08 22:43:00,36.0,-99.9,-100.00,SE,143,4.0,-999.0,-999,-99.99,,,-99.99,,2013-01-09 05:43:00,
2013-01-08 22:53:00,36.0,-99.9,-100.00,South,185,4.0,-999.0,-999,-99.99,,,-99.99,,2013-01-09 05:53:00,
2013-01-08 23:03:00,35.0,-99.9,-100.00,SSE,153,4.0,-999.0,-999,-99.99,,,-99.99,,2013-01-09 06:03:00,
2013-01-08 23:12:00,35.0,-99.9,-100.00,SSE,153,4.0,-999.0,-999,-99.99,,,-99.99,,2013-01-09 06:12:00,
2013-01-08 23:22:00,34.0,-99.9,-100.00,SE,140,4.0,-999.0,-999,-99.99,,,-99.99,,2013-01-09 06:22:00,
2013-01-08 23:32:00,33.0,-99.9,-100.00,SE,144,4.0,-999.0,-999,-99.99,,,-99.99,,2013-01-09 06:32:00,
2013-01-08 23:43:00,33.0,-99.9,-100.00,SE,144,4.0,-999.0,-999,-99.99,,,-99.99,,2013-01-09 06:43:00,
2013-01-08 23:53:00,32.0,-99.9,-100.00,SSW,196,4.0,-999.0,-999,-99.99,,,-99.99,,2013-01-09 06:53:00,